sat.trackr.live / text

‹ back to catalog

JILIN-1 KUANFU 01C

NORAD 52443 · 2022-048A

PAYLOAD ACTIVE UNKNOWN

§ Identity

Operator
Country
PRC
Launch date
2022-05-05
Launch site
TAISC
Launch vehicle
Mass (kg)
RCS (m²)

External: N2YO · Heavens-Above · Gunter

§ Orbital elements

Epoch: 2026-09-20T22:27:32.619744Z

Period
95.37 min
Inclination
97.5184°
Eccentricity
0.0017912
Mean motion
15.09896063 rev/d
Perigee alt
524.1 km
Apogee alt
548.9 km
Semi-major
6,914.7 km
B*
9.8233e-5
RAAN
339.3354°
Arg perigee
356.7628°
Mean anomaly
3.3482°
Rev number
24,164

§ Raw data

JILIN-1 KUANFU 01C1 52443U 22048A   26263.93579421  .00001533  00000+0  98233-4 0  99932 52443  97.5184 339.3354 0017912 356.7628   3.3482 15.09896063241645

JSON: /api/v1/satellites/52443 · /tle

For live sub-satellite position, see the globe view (requires WebGL).

§ Visibility from observer

Set your observer location to see the next 7 days of passes ≥ 10°. The values pass through the URL so the page stays shareable.

No JS? Fill the form by hand. The geolocation button needs JavaScript.